This demonstration page uses our WeatherBlox Daily Observations layout. Learn more.

Left ArrowRight Arrow

41.12389, -100.76542

Hourly Observations for December 5, 2017

Temp ( °F °C ) Dew Point ( °F °C ) Humidity (%) Winds ( mph kmh ) Pressure ( in mb ) Visibility ( mi km ) Precip ( " mm )
12:53 am 00:53 Clear 17 -8.3 9 -12.8 70 70 WNW 9 15 30.26 1025 10 16 0.00 0.00
1:53 am 01:53 Clear 10 -12.2 6 -14.4 84 84 WNW 5 7 30.26 1025 10 16 0.00 0.00
2:53 am 02:53 Clear 14 -10 9 -12.8 80 80 W 7 11 30.26 1025 10 16 0.00 0.00
3:53 am 03:53 Cloudy 19 -7.2 11 -11.7 71 71 W 8 13 30.25 1024 10 16 0.00 0.00
4:53 am 04:53 Mostly Clear 19 -7.2 12 -11.1 74 74 W 13 20 30.27 1025 10 16 0.00 0.00
5:53 am 05:53 Clear 19 -7.2 12 -11.1 74 74 W 12 19 30.29 1026 10 16 0.00 0.00
6:53 am 06:53 Clear 20 -6.7 13 -10.6 74 74 W 12 19 30.31 1026 10 16 0.00 0.00
7:53 am 07:53 Sunny 22 -5.6 14 -10 71 71 W 12 19 30.33 1027 10 16 0.00 0.00
8:53 am 08:53 Sunny 24 -4.4 14 -10 65 65 W 12 19 30.32 1027 10 16 0.00 0.00
9:53 am 09:53 Sunny 29 -1.7 15 -9.4 56 56 W 14 22 30.34 1027 10 16 0.00 0.00
10:53 am 10:53 Sunny 34 1.1 14 -10 44 44 W 16 26 30.32 1027 10 16 0.00 0.00
11:53 am 11:53 Sunny 38 3.3 14 -10 37 37 W 17 28 30.27 1025 10 16 0.00 0.00
12:53 pm 12:53 Sunny 43 6.1 12 -11.1 28 28 WNW 21 33 30.23 1024 10 16 0.00 0.00
1:53 pm 13:53 Sunny 45 7.2 12 -11.1 26 26 W 22 35 30.21 1023 10 16 0.00 0.00
2:53 pm 14:53 Mostly Cloudy 45 7.2 12 -11.1 26 26 W 22 35 30.19 1023 10 16 0.00 0.00
3:53 pm 15:53 Cloudy 45 7.2 14 -10 29 29 WNW 23 37 30.19 1022 10 16 0.00 0.00
4:53 pm 16:53 Mostly Sunny 42 5.6 15 -9.4 33 33 WNW 17 28 30.19 1023 10 16 0.00 0.00
5:53 pm 17:53 Clear 41 5 16 -8.9 36 36 WNW 17 28 30.19 1023 10 16 0.00 0.00
6:53 pm 18:53 Clear 38 3.3 18 -7.8 44 44 WNW 12 19 30.22 1023 10 16 0.00 0.00
7:53 pm 19:53 Clear 38 3.3 18 -7.8 44 44 WNW 14 22 30.22 1024 10 16 0.00 0.00
8:53 pm 20:53 Clear 33 0.6 19 -7.2 56 56 NW 8 13 30.26 1025 10 16 0.00 0.00
9:53 pm 21:53 Clear 34 1.1 19 -7.2 54 54 NW 9 15 30.27 1025 10 16 0.00 0.00
10:53 pm 22:53 Clear 27 -2.8 18 -7.8 69 69 NW 7 11 30.28 1026 10 16 0.00 0.00
11:53 pm 23:53 Clear 26 -3.3 18 -7.8 71 71 NNW 7 11 30.29 1026 10 16 0.00 0.00

Powered by AerisWeather